CAPE
1537 1422 1335 1158 966 905 932 841 661 673 682 503 264 47 36 1 0 0 1 0 15 121
1460 1600 1604 1561 1286 1045 886 836 735 620 479 287 299 257 88 0 0 0 10 58 50 103
2097 1926 1842 1733 1615 1445 1155 883 703 514 524 376 194 159 89 20 7 3 12 25 51 174
2418 2464 2402 2288 2003 1768 1490 1198 925 758 605 507 317 185 126 96 47 34 6 72 294 280
2626 2654 2558 2459 2252 1932 1763 1457 1199 1046 873 720 564 441 312 184 200 119 149 267 328 283
2729 2592 2273 2086 2022 1902 1847 1632 1458 1343 1182 916 803 634 433 579 563 490 510 661 474 230
2213 2278 2147 1961 1776 1742 1733 1645 1531 1388 1168 1061 851 824 831 857 842 767 844 735 371 219
2060 2139 1878 1738 1663 1695 1736 1666 1518 1347 1276 1110 1143 1093 997 1005 944 956 707 380 188 164
2080 1949 1890 1701 1615 1658 1513 1394 1310 1361 1221 1277 1398 1399 1297 1183 1244 1054 597 363 0 11
1974 2010 1812 1680 1538 1462 1345 1318 1295 1298 1306 1441 1432 1401 1415 1480 1394 822 612 224 0 0
1900 1896 1826 1688 1594 1594 1418 1339 1413 1460 1550 1518 1552 1619 1548 1095 929 972 669 253 71 6
2068 2083 1992 1875 1834 1746 1654 1575 1755 1635 1736 1732 1575 1593 1298 1072 929 906 743 414 183 76
2171 2103 2123 2127 2053 1910 1934 1905 1689 1867 1858 1566 1211 1093 812 705 831 941 799 639 480 208
2331 2079 2011 1941 2020 2181 2169 2079 1929 1657 1244 1101 775 519 481 277 444 689 649 682 796 722
CIN
-124 -114 -93 -68 -52 -38 -52 -66 -106 -93 -82 -83 -79 -84 -78 -14 -0 -0 -76 -0 -49 -31
-134 -101 -84 -54 -42 -38 -64 -72 -85 -86 -93 -107 -82 -54 -51 -8 -0 -3 -64 -35 -31 -22
-109 -80 -58 -43 -30 -24 -47 -78 -86 -118 -103 -86 -93 -71 -55 -58 -61 -36 -45 -45 -20 -29
-88 -52 -38 -28 -27 -29 -39 -61 -83 -81 -112 -91 -92 -88 -65 -48 -52 -51 -44 -18 -8 -31
-65 -30 -29 -26 -21 -32 -27 -48 -60 -51 -53 -50 -53 -48 -43 -61 -39 -55 -41 -21 -20 -37
-73 -49 -59 -66 -64 -67 -63 -60 -54 -32 -23 -33 -36 -47 -67 -32 -29 -21 -16 -8 -23 -47
-146 -118 -97 -101 -107 -97 -96 -88 -73 -49 -47 -40 -55 -37 -20 -12 -10 -18 -15 -15 -38 -52
-188 -137 -138 -140 -125 -110 -103 -101 -102 -83 -52 -53 -46 -45 -37 -12 -6 -4 -15 -43 -68 -53
-183 -164 -145 -153 -161 -137 -123 -119 -121 -103 -113 -75 -30 -28 -28 -19 -10 -7 -24 -41 -0 -124
-183 -156 -172 -174 -189 -162 -145 -124 -101 -71 -48 -26 -38 -40 -18 -13 -15 -48 -60 -117 -0 -0
-180 -167 -173 -176 -162 -129 -138 -130 -88 -52 -29 -20 -15 -14 -17 -32 -48 -39 -71 -135 -190 -62
-160 -142 -150 -149 -135 -123 -120 -125 -81 -88 -50 -24 -23 -20 -25 -34 -54 -59 -67 -90 -133 -179
-111 -126 -128 -102 -105 -114 -83 -64 -104 -68 -80 -167 -168 -95 -63 -50 -52 -30 -42 -59 -78 -107
-85 -107 -107 -88 -76 -48 -24 -21 -18 -39 -118 -154 -178 -198 -148 -151 -64 -36 -34 -54 -49 -60
Wind_Speed
13 13 12 11 11 10 9 10 7 8 5 6 5 6 4 5 10 3 24 19 19 16
12 9 11 11 14 12 10 10 9 7 5 4 5 5 6 6 11 6 12 6 20 35
9 11 12 11 12 14 12 7 7 4 9 14 11 11 9 9 13 10 13 14 26 25
9 13 14 15 15 14 12 10 7 9 10 11 11 9 8 9 7 5 4 5 13 15
12 14 14 14 14 14 14 11 12 10 9 9 10 9 10 10 8 8 8 9 8 11
15 14 14 14 12 13 14 13 12 9 8 8 9 10 12 12 12 12 11 10 7 24
15 15 14 13 12 11 13 13 12 10 10 9 8 9 10 12 13 12 9 7 5 26
15 15 14 13 11 12 11 11 11 11 12 12 9 7 7 8 10 7 5 8 14 18
12 12 12 12 11 10 10 9 8 7 9 8 6 7 9 7 5 3 5 9 14 17
8 8 9 8 9 9 8 6 5 5 4 4 6 7 5 5 4 4 3 6 9 13
4 5 5 5 4 4 4 4 3 3 3 5 8 1 7 1 3 2 2 3 6 10
1 1 1 1 1 1 1 1 1 2 5 10 12 12 12 18 18 8 6 8 8 6
3 2 2 2 2 2 2 3 4 4 1 10 18 24 27 22 20 15 16 13 8 3
3 3 4 4 5 5 4 4 4 7 5 6 5 14 23 27 27 24 25 25 17 7
Wind_Direction
166 173 179 183 185 194 196 198 206 203 214 200 213 211 264 280 301 293 293 293 287 290
175 173 179 181 184 186 195 197 201 208 241 264 216 213 204 217 206 229 201 207 207 254
168 175 180 176 184 189 189 189 191 203 175 184 181 185 188 199 203 200 197 194 209 205
155 168 174 176 177 179 178 171 168 169 169 172 173 165 166 172 173 171 171 178 188 197
149 155 160 162 165 167 169 159 162 159 157 157 161 152 158 159 151 160 172 187 313 301
144 144 148 149 146 150 158 158 154 145 142 144 146 152 157 160 159 163 169 177 336 298
136 138 134 126 126 126 143 151 150 144 145 140 137 141 149 158 162 164 158 152 49 307
133 129 123 114 105 116 116 130 136 140 150 155 140 129 131 143 156 144 83 24 360 353
117 118 118 118 110 111 105 101 97 110 133 135 129 141 155 149 131 91 55 16 2 359
111 112 111 104 107 112 110 91 80 53 35 127 150 157 149 151 131 131 107 31 26 21
106 113 105 94 92 91 92 105 90 65 25 350 332 285 187 232 327 219 166 26 24 20
25 68 112 118 107 93 65 57 93 354 332 320 317 315 311 305 302 303 297 317 336 358
319 296 302 310 275 258 233 218 300 176 291 294 301 297 295 298 294 295 297 305 309 301
328 317 304 304 305 290 274 272 253 302 314 310 313 292 291 289 285 285 287 289 297 292